Date_and_time,latitude,longitude,wind_speed,RelWindDirFrom,WindDirFrom,air_pressure,air_temperature,relative_humidity,Temp,platform_speed_wrt_ground,air_pressure_at_mean_sea_level,platform_orientation
2019-12-24 00:00,50.6304566666667,-96.980765,4.3,5.4,75,992.19,-10.1,87,0.78,0.0,1021.25,90.0
2019-12-24 00:10,50.6304583333333,-96.980765,5.2,6.2,71,991.86,-10.0,88,0.78,0.0,1020.91,90.0
2019-12-24 00:20,50.6304516666667,-96.9807783333333,5.3,6.4,53,991.83,-10.0,88,0.78,0.0,1020.89,90.0
2019-12-24 00:30,50.630455,-96.9807733333333,4.9,5.8,50,991.76,-10.0,88,0.78,0.0,1020.81,90.0
2019-12-24 00:40,50.630455,-96.98076,4.4,5.4,52,991.73,-9.8,86,0.78,0.0,1020.77,90.0
2019-12-24 00:50,50.630455,-96.9807616666667,2.9,4.3,62,991.76,-9.7,86,0.78,0.0,1020.81,90.0
2019-12-24 01:00,50.6304566666667,-96.9807633333333,3.2,4.0,56,991.66,-9.6,84,0.79,0.0,1020.70,90.0
2019-12-24 01:10,50.6304566666667,-96.9807666666667,4.9,6.3,60,991.28,-9.5,84,0.79,0.0,1020.31,90.0
2019-12-24 01:20,50.6304566666667,-96.9807683333333,6.0,7.3,58,990.84,-9.4,85,0.79,0.0,1019.85,90.0
2019-12-24 01:30,50.6304566666667,-96.9807683333333,5.9,7.4,48,990.68,-9.4,86,0.79,0.0,1019.67,90.0
2019-12-24 01:40,50.6304566666667,-96.9807666666667,5.9,7.1,58,990.46,-9.2,86,0.79,0.0,1019.43,90.0
2019-12-24 01:50,50.630455,-96.980765,6.0,7.8,58,990.41,-9.1,85,0.79,0.0,1019.38,90.0
2019-12-24 02:00,50.630455,-96.980765,5.9,6.8,56,990.23,-9.0,85,0.79,0.0,1019.18,360.0
2019-12-24 02:10,50.6304616666667,-96.98077,5.9,7.2,57,990.17,-9.0,85,0.79,0.0,1019.12,360.0
2019-12-24 02:20,50.63046,-96.9807616666667,7.1,8.2,70,989.79,-9.0,85,0.79,0.0,1018.72,360.0
2019-12-24 02:30,50.63046,-96.9807683333333,6.7,8.0,71,989.52,-9.1,85,0.80,0.0,1018.45,360.0
2019-12-24 02:40,50.630425,-96.980785,5.7,7.0,79,989.46,-9.0,85,0.81,0.0,1018.37,360.0
2019-12-24 02:50,50.6304466666667,-96.9807483333333,4.7,6.4,93,989.28,-9.0,85,0.82,0.0,1018.18,360.0
2019-12-24 03:00,50.6304516666667,-96.980755,5.7,6.6,98,989.11,-8.8,84,0.82,0.0,1017.99,90.0
2019-12-24 03:10,50.6304533333333,-96.9807566666667,6.2,6.9,101,989.01,-8.9,85,0.82,0.0,1017.88,90.0
2019-12-24 03:20,50.6304983333333,-96.9807916666667,6.1,7.7,104,988.92,-8.9,85,0.82,0.0,1017.79,90.0
2019-12-24 03:30,50.6304566666667,-96.9807666666667,8.5,9.9,113,988.64,-8.6,83,0.82,0.0,1017.48,90.0
2019-12-24 03:40,50.6304533333333,-96.98077,9.3,10.6,117,988.22,-8.2,82,0.81,0.0,1017.01,90.0
2019-12-24 03:50,50.6304416666667,-96.98077,9.1,10.9,121,987.88,-8.1,82,0.81,0.0,1016.66,90.0
2019-12-24 04:00,50.6304516666667,-96.9807866666667,8.8,10.5,116,987.60,-8.1,82,0.81,0.0,1016.37,270.0
2019-12-24 04:10,50.6304483333333,-96.9807683333333,5.9,8.2,116,987.49,-8.2,84,0.79,0.0,1016.26,270.0
2019-12-24 04:20,50.6304533333333,-96.9807666666667,4.7,7.2,144,987.57,-8.6,83,0.79,0.0,1016.37,270.0
2019-12-24 04:30,50.630455,-96.980765,6.3,7.8,144,987.29,-8.7,82,0.79,0.0,1016.09,270.0
2019-12-24 04:40,50.6304533333333,-96.980765,6.5,7.9,163,987.30,-8.8,82,0.78,0.0,1016.10,270.0
2019-12-24 04:50,50.6304533333333,-96.980765,8.3,12.3,162,987.30,-8.7,81,0.78,0.0,1016.08,270.0
2019-12-24 05:00,50.6304533333333,-96.980765,13.5,16.0,143,986.89,-8.4,79,0.78,0.0,1015.64,0.0
2019-12-24 05:10,50.630455,-96.9807666666667,12.8,16.0,148,986.94,-8.3,80,0.78,0.0,1015.70,0.0
2019-12-24 05:20,50.6304566666667,-96.9807683333333,10.4,12.8,152,986.98,-8.2,80,0.77,0.0,1015.71,0.0
2019-12-24 05:30,50.6304566666667,-96.98077,6.9,9.4,160,987.12,-8.3,81,0.77,0.0,1015.84,0.0
2019-12-24 05:40,50.63045,-96.9807633333333,6.3,7.5,166,987.08,-8.3,83,0.77,0.0,1015.79,0.0
2019-12-24 05:50,50.6304516666667,-96.980765,5.9,7.1,161,986.88,-8.3,83,0.77,0.0,1015.59,0.0
2019-12-24 06:00,50.6304316666667,-96.9807133333333,7.2,9.1,152,986.52,-8.4,83,0.76,0.0,1015.23,130.6
2019-12-24 06:10,50.6304633333333,-96.9807916666667,6.4,8.5,160,986.24,-8.5,84,0.76,0.0,1014.97,130.6
2019-12-24 06:20,50.6304616666667,-96.9807783333333,5.3,7.1,190,986.59,-8.6,85,0.76,0.0,1015.34,130.6
2019-12-24 06:30,50.6304616666667,-96.980775,7.3,9.5,184,986.60,-8.5,82,0.76,0.0,1015.34,130.6
2019-12-24 06:40,50.6304616666667,-96.9807733333333,7.4,9.7,194,986.84,-8.4,80,0.75,0.0,1015.58,130.6
2019-12-24 06:50,50.6304616666667,-96.980775,6.5,9.5,193,986.92,-8.2,78,0.75,0.0,1015.64,130.6
2019-12-24 07:00,50.6304616666667,-96.980775,3.8,4.6,196,986.91,-8.1,77,0.75,0.0,1015.62,49.4
2019-12-24 07:10,50.6304633333333,-96.980775,2.5,3.5,182,986.93,-8.2,77,0.75,0.0,1015.64,49.4
2019-12-24 07:20,50.6304716666667,-96.9807783333333,2.4,3.8,171,986.87,-8.2,76,0.75,0.0,1015.59,49.4
2019-12-24 07:30,50.63047,-96.9807716666667,2.8,3.4,138,986.64,-8.0,77,0.75,0.0,1015.34,49.4
2019-12-24 07:40,50.63047,-96.9807716666667,3.5,4.2,140,986.45,-8.4,78,0.75,0.0,1015.16,49.4
2019-12-24 07:50,50.6304666666667,-96.98077,4.6,5.1,139,986.18,-8.3,77,0.76,0.0,1014.89,49.4
2019-12-24 08:00,50.6304683333333,-96.9807683333333,4.4,5.2,137,986.13,-8.3,78,0.75,0.0,1014.84,360.0
2019-12-24 08:10,50.63047,-96.9808133333333,4.5,4.9,126,986.13,-8.2,82,0.75,0.0,1014.83,360.0
2019-12-24 08:20,50.6304716666667,-96.9807816666667,4.2,5.0,115,986.19,-8.5,86,0.75,0.0,1014.92,360.0
2019-12-24 08:30,50.6304683333333,-96.9807783333333,5.7,6.6,118,986.12,-8.7,88,0.75,0.0,1014.85,360.0
2019-12-24 08:40,50.6304683333333,-96.9807783333333,6.4,6.9,123,986.06,-8.8,88,0.75,0.0,1014.77,360.0
2019-12-24 08:50,50.6304466666667,-96.98077,6.6,7.1,123,985.89,-8.8,88,0.75,0.0,1014.60,360.0
2019-12-24 09:00,50.63046,-96.9807666666667,6.5,7.5,131,985.76,-8.8,88,0.75,0.0,1014.47,311.3
2019-12-24 09:10,50.63046,-96.980765,5.3,6.9,154,985.86,-9.4,87,0.75,0.0,1014.60,311.3
2019-12-24 09:20,50.63046,-96.98077,5.4,6.8,157,985.84,-9.2,86,0.75,0.0,1014.57,311.3
2019-12-24 09:30,50.6304633333333,-96.9807883333333,4.7,5.6,154,985.69,-9.3,88,0.75,0.0,1014.43,311.3
2019-12-24 09:40,50.63046,-96.980755,4.3,5.5,163,985.62,-9.2,87,0.74,0.0,1014.36,311.3
2019-12-24 09:50,50.630455,-96.98076,3.9,4.2,168,985.38,-9.3,88,0.74,0.0,1014.11,311.3
2019-12-24 10:00,50.630465,-96.9807733333333,4.2,5.0,166,985.26,-9.4,88,0.74,0.0,1013.99,38.0
2019-12-24 10:10,50.6304633333333,-96.9807683333333,3.2,4.4,181,985.39,-9.5,89,0.74,0.0,1014.14,38.0
2019-12-24 10:20,50.6304616666667,-96.9807683333333,3.6,4.3,194,985.52,-9.5,88,0.74,0.0,1014.29,38.0
2019-12-24 10:30,50.6304633333333,-96.9807716666667,4.2,5.0,194,985.50,-9.6,89,0.75,0.0,1014.27,38.0
2019-12-24 10:40,50.6304616666667,-96.980775,4.6,5.3,187,985.29,-9.7,90,0.76,0.0,1014.06,38.0
2019-12-24 10:50,50.63046,-96.9807616666667,3.4,4.5,196,985.21,-9.7,89,0.78,0.0,1013.98,38.0
2019-12-24 11:00,50.6304633333333,-96.9807616666667,2.5,3.4,203,985.03,-9.7,88,0.78,0.0,1013.83,131.7
2019-12-24 11:10,50.630465,-96.9807566666667,2.4,3.7,199,984.97,-9.8,88,0.78,0.0,1013.77,131.7
2019-12-24 11:20,50.6304866666667,-96.9807666666667,3.5,4.3,193,984.89,-9.9,87,0.76,0.0,1013.70,131.7
2019-12-24 11:30,50.63046,-96.9807733333333,3.9,4.7,191,984.77,-10.2,88,0.76,0.0,1013.58,131.7
2019-12-24 11:40,50.6304616666667,-96.98077,4.4,5.6,184,984.68,-10.4,89,0.76,0.0,1013.51,131.7
2019-12-24 11:50,50.6304616666667,-96.9807683333333,5.1,5.7,179,984.62,-10.6,89,0.76,0.0,1013.46,131.7
2019-12-24 12:00,50.6304633333333,-96.9807716666667,4.5,4.9,184,984.64,-10.9,90,0.77,0.0,1013.50,347.4
2019-12-24 12:10,50.6304633333333,-96.9807683333333,4.6,5.4,195,984.75,-11.0,91,0.77,0.0,1013.62,347.4
2019-12-24 12:20,50.630445,-96.9807383333333,4.8,6.5,221,984.99,-10.9,90,0.77,0.0,1013.87,347.4
2019-12-24 12:30,50.6304716666667,-96.9807616666667,5.5,7.8,227,985.03,-11.1,90,0.77,0.0,1013.92,347.4
2019-12-24 12:40,50.6304466666667,-96.980775,5.5,8.0,234,985.03,-11.3,90,0.78,0.0,1013.94,347.4
2019-12-24 12:50,50.6304616666667,-96.980765,5.2,6.9,248,985.11,-11.5,90,0.78,0.0,1014.03,347.4
2019-12-24 13:00,50.6304633333333,-96.9807683333333,5.4,7.1,247,985.13,-11.8,90,0.77,0.0,1014.08,131.7
2019-12-24 13:10,50.6304616666667,-96.9807666666667,4.9,6.6,244,985.24,-11.9,91,0.77,0.0,1014.20,131.7
2019-12-24 13:20,50.6304616666667,-96.980765,4.7,6.5,237,985.16,-11.9,91,0.77,0.0,1014.13,131.7
2019-12-24 13:30,50.6304616666667,-96.9807666666667,5.1,6.4,233,985.03,-11.9,91,0.76,0.0,1014.00,131.7
2019-12-24 13:40,50.63046,-96.980765,5.5,7.8,234,984.94,-11.9,90,0.76,0.0,1013.93,131.7
2019-12-24 13:50,50.6304616666667,-96.980765,5.8,7.1,234,984.99,-12.0,90,0.76,0.0,1014.00,131.7
2019-12-24 14:00,50.6304833333333,-96.9808,5.9,7.4,235,985.08,-12.0,90,0.76,0.0,1014.10,299.2
2019-12-24 14:10,50.630465,-96.9807716666667,5.6,7.3,243,984.93,-12.0,90,0.76,0.0,1013.94,299.2
2019-12-24 14:20,50.63046,-96.9807716666667,6.0,7.8,245,984.96,-12.0,90,0.76,0.0,1013.98,299.2
2019-12-24 14:30,50.630455,-96.98077,6.1,7.6,244,985.05,-12.2,90,0.76,0.0,1014.10,299.2
2019-12-24 14:40,50.630455,-96.9807666666667,5.8,7.3,241,985.09,-12.3,91,0.75,0.0,1014.15,299.2
2019-12-24 14:50,50.6304533333333,-96.9807666666667,6.3,8.0,242,985.31,-12.2,90,0.75,0.0,1014.39,299.2
2019-12-24 15:00,50.6304533333333,-96.9807666666667,6.2,8.3,250,985.51,-12.1,89,0.75,0.0,1014.60,360.0
2019-12-24 15:10,50.6304533333333,-96.9807666666667,5.8,7.4,253,985.56,-12.0,88,0.75,0.0,1014.65,360.0
2019-12-24 15:20,50.6304733333333,-96.9807916666667,5.5,8.0,254,985.72,-12.0,88,0.75,0.0,1014.81,360.0
2019-12-24 15:30,50.6304533333333,-96.98079,4.7,6.7,251,985.79,-12.0,88,0.75,0.0,1014.88,360.0
2019-12-24 15:40,50.630455,-96.98078,5.2,6.9,246,986.08,-11.9,88,0.74,0.0,1015.18,360.0
2019-12-24 15:50,50.6304566666667,-96.9807783333333,5.6,7.4,249,986.36,-11.6,88,0.74,0.0,1015.45,360.0
2019-12-24 16:00,50.6304583333333,-96.9807866666667,5.0,8.5,261,986.41,-11.0,88,0.74,0.0,1015.48,252.3
2019-12-24 16:10,50.6304666666667,-96.980795,4.8,7.5,281,986.37,-10.5,88,0.74,0.0,1015.40,252.3
2019-12-24 16:20,50.6304616666667,-96.98077,5.3,9.8,287,986.35,-10.1,88,0.74,0.0,1015.37,252.3
2019-12-24 16:30,50.6304616666667,-96.980765,4.9,7.3,287,986.40,-9.8,88,0.74,0.0,1015.42,252.3
2019-12-24 16:40,50.630455,-96.980765,4.6,6.9,284,986.45,-9.6,87,0.75,0.0,1015.45,252.3
2019-12-24 16:50,50.630455,-96.9807633333333,4.0,6.4,279,986.41,-9.5,86,0.75,0.0,1015.39,252.3
2019-12-24 17:00,50.6304683333333,-96.9807916666667,4.3,6.9,274,986.34,-9.3,86,0.75,0.0,1015.31,138.7
2019-12-24 17:10,50.630455,-96.9807733333333,4.2,5.8,250,986.48,-9.2,85,0.74,0.0,1015.45,138.7
2019-12-24 17:20,50.6304583333333,-96.9807666666667,4.2,6.6,269,986.36,-9.0,85,0.73,0.0,1015.31,138.7
2019-12-24 17:30,50.630425,-96.98079,4.8,6.6,248,986.46,-8.9,85,0.72,0.0,1015.40,138.7
2019-12-24 17:40,50.6304566666667,-96.9807666666667,5.1,7.4,247,986.51,-8.8,86,0.72,0.0,1015.43,138.7
2019-12-24 17:50,50.6304333333333,-96.9807783333333,5.0,7.1,258,986.51,-8.6,86,0.72,0.0,1015.39,138.7
2019-12-24 18:00,50.6304416666667,-96.9807616666667,4.7,7.6,265,986.37,-8.4,86,0.72,0.0,1015.20,165.5
2019-12-24 18:10,50.6304483333333,-96.9807583333333,4.7,7.2,277,986.22,-8.2,86,0.72,0.0,1015.01,165.5
2019-12-24 18:20,50.6304483333333,-96.9807566666667,4.6,6.4,284,986.12,-8.0,86,0.72,0.0,1014.88,165.5
2019-12-24 18:30,50.6304516666667,-96.9807566666667,5.8,9.6,299,985.94,-7.7,85,0.72,0.0,1014.67,165.5
2019-12-24 18:40,50.6304733333333,-96.9807866666667,6.5,9.6,305,985.84,-7.7,85,0.72,0.0,1014.56,165.5
2019-12-24 18:50,50.6304666666667,-96.9807716666667,5.9,8.7,303,985.90,-7.7,85,0.72,0.0,1014.61,165.5
2019-12-24 19:00,50.6304633333333,-96.98077,5.9,8.7,306,986.07,-7.6,85,0.72,0.0,1014.78,72.3
2019-12-24 19:10,50.6304616666667,-96.98077,5.8,12.1,315,986.10,-7.6,85,0.72,0.0,1014.79,72.3
2019-12-24 19:20,50.6304583333333,-96.98077,9.1,14.8,306,986.02,-7.6,85,0.72,0.0,1014.71,72.3
2019-12-24 19:30,50.6304566666667,-96.9807683333333,8.5,12.3,302,986.18,-7.7,85,0.72,0.0,1014.87,72.3
2019-12-24 19:40,50.6304566666667,-96.980765,7.0,11.3,313,986.45,-7.7,85,0.72,0.0,1015.14,72.3
2019-12-24 19:50,50.6304533333333,-96.9807633333333,8.2,13.4,308,986.56,-7.9,85,0.72,0.0,1015.25,72.3
2019-12-24 20:00,50.6304516666667,-96.9807633333333,9.0,14.2,303,986.60,-8.0,85,0.72,0.0,1015.29,131.6
2019-12-24 20:10,50.6304516666667,-96.9807666666667,7.0,10.1,285,986.60,-8.1,84,0.72,0.0,1015.28,131.6
2019-12-24 20:20,50.6304516666667,-96.9807683333333,6.8,9.9,308,986.63,-8.0,84,0.72,0.0,1015.30,131.6
2019-12-24 20:30,50.6304533333333,-96.9807683333333,6.3,9.3,317,986.77,-8.0,83,0.73,0.0,1015.44,131.6
2019-12-24 20:40,50.6304533333333,-96.98077,7.3,10.4,310,986.81,-8.2,82,0.73,0.0,1015.48,131.6
2019-12-24 20:50,50.6304533333333,-96.98077,6.4,8.2,313,986.94,-8.2,81,0.73,0.0,1015.61,131.6
2019-12-24 21:00,50.6304533333333,-96.9807716666667,6.4,11.7,321,987.10,-8.1,79,0.74,0.0,1015.77,323.4
2019-12-24 21:10,50.63044,-96.9807916666667,5.7,8.1,324,986.98,-8.1,78,0.74,0.0,1015.65,323.4
2019-12-24 21:20,50.6304516666667,-96.9807816666667,4.4,6.5,330,987.00,-8.0,79,0.74,0.0,1015.68,323.4
2019-12-24 21:30,50.6304516666667,-96.9807766666667,4.3,6.8,306,987.13,-8.0,79,0.74,0.0,1015.81,323.4
2019-12-24 21:40,50.6304583333333,-96.9807683333333,5.0,7.5,318,987.21,-8.0,79,0.73,0.0,1015.90,323.4
2019-12-24 21:50,50.630455,-96.9807683333333,5.1,7.4,302,987.34,-8.0,79,0.73,0.0,1016.04,323.4
2019-12-24 22:00,50.630455,-96.9807716666667,4.3,7.0,296,987.55,-8.0,79,0.73,0.0,1016.26,360.0
2019-12-24 22:10,50.630455,-96.98077,4.5,6.5,296,987.85,-8.0,78,0.73,0.0,1016.57,360.0
2019-12-24 22:20,50.630455,-96.9807666666667,5.0,7.7,291,987.94,-8.0,79,0.74,0.0,1016.66,360.0
2019-12-24 22:30,50.6304533333333,-96.980765,5.3,8.1,304,987.88,-8.0,79,0.74,0.0,1016.61,360.0
2019-12-24 22:40,50.6304383333333,-96.9807416666667,5.7,8.2,303,987.82,-8.1,79,0.74,0.0,1016.55,360.0
2019-12-24 22:50,50.6304466666667,-96.980755,4.9,7.0,307,987.80,-8.1,79,0.74,0.0,1016.52,360.0
2019-12-24 23:00,50.630455,-96.9807583333333,5.4,8.1,315,987.84,-8.1,79,0.75,0.0,1016.56,90.0
2019-12-24 23:10,50.63045,-96.980745,4.9,8.0,316,987.92,-8.1,79,0.75,0.0,1016.64,90.0
2019-12-24 23:20,50.6304533333333,-96.9807533333333,5.0,8.6,325,987.77,-8.1,79,0.89,0.0,1016.49,90.0
2019-12-24 23:30,50.6304783333333,-96.98076,6.3,8.3,338,987.41,-8.1,79,0.75,0.0,1016.11,90.0
2019-12-24 23:40,50.6304733333333,-96.9807566666667,5.0,8.6,338,987.50,-8.1,79,0.75,0.0,1016.21,90.0
